UAE47 OMDB-EDDF

Flight info

Callsign UAE47
Flight time N/A
Altitude 34000
Route RIDAP M557 TUMAK L602 GADSI M860 SEPTU DCT VUSEB M860 NINVA UM860 NAREN/N0481F360 UM860 ODALI UL852 NEGEM DCT MAXOV DCT IRLOX DCT BALUX DCT TEKNO DCT ABETI DCT TAGAS DCT SUBEN DCT AKINI T161 DEBHI SPESA5B
Aircraft B77W/H-SDE1E2E3FGHIJ2J3J4J5M1RWXY/LB1D1

Departure

Time 2026-04-25 10:06
Airport Dubai International Airport (OMDB)

Arrival

Time N/A
Airport Frankfurt Main Airport (EDDF)
Time Latitude Longitude Altitude Speed Heading
2026-04-25 09:25 25.24476 55.37139 27 ft 0 kts 214°
2026-04-25 09:54 25.24494 55.37152 26 ft 4 kts 211°
2026-04-25 09:54 25.24517 55.37167 25 ft 4 kts 211°
2026-04-25 09:54 25.24535 55.37178 24 ft 4 kts 200°
2026-04-25 09:54 25.24554 55.37183 24 ft 4 kts 165°
2026-04-25 09:55 25.24570 55.37173 25 ft 4 kts 126°
2026-04-25 09:55 25.24584 55.37149 26 ft 4 kts 122°
2026-04-25 09:55 25.24593 55.37132 25 ft 0 kts 122°
2026-04-25 10:00 25.24589 55.37141 24 ft 7 kts 122°
2026-04-25 10:00 25.24556 55.37199 25 ft 10 kts 122°
2026-04-25 10:00 25.24519 55.37264 27 ft 10 kts 122°
2026-04-25 10:01 25.24484 55.37328 27 ft 10 kts 122°
2026-04-25 10:01 25.24448 55.37391 27 ft 10 kts 122°
2026-04-25 10:01 25.24413 55.37454 27 ft 10 kts 122°
2026-04-25 10:01 25.24377 55.37517 27 ft 10 kts 122°
2026-04-25 10:02 25.24342 55.37580 27 ft 10 kts 122°
2026-04-25 10:02 25.24307 55.37643 27 ft 10 kts 122°
2026-04-25 10:02 25.24271 55.37707 27 ft 10 kts 122°
2026-04-25 10:02 25.24275 55.37775 27 ft 10 kts 52°
2026-04-25 10:03 25.24331 55.37817 27 ft 10 kts 33°
2026-04-25 10:03 25.24388 55.37859 27 ft 10 kts 33°
2026-04-25 10:03 25.24445 55.37902 27 ft 10 kts 34°
2026-04-25 10:03 25.24500 55.37944 27 ft 10 kts 34°
2026-04-25 10:04 25.24557 55.37987 27 ft 10 kts 34°
2026-04-25 10:04 25.24614 55.38029 27 ft 10 kts 32°
2026-04-25 10:04 25.24672 55.38069 27 ft 10 kts 32°
2026-04-25 10:04 25.24734 55.38098 27 ft 10 kts
2026-04-25 10:05 25.24788 55.38056 27 ft 10 kts 308°
2026-04-25 10:05 25.24835 55.37976 27 ft 28 kts 301°
2026-04-25 10:05 25.25109 55.37483 27 ft 122 kts 302°
2026-04-25 10:05 25.25721 55.36425 38 ft 206 kts 304°
2026-04-25 10:06 25.26549 55.34922 704 ft 235 kts 300°
2026-04-25 10:06 25.27391 55.33361 2058 ft 236 kts 303°
2026-04-25 10:06 25.28251 55.31828 2976 ft 240 kts 302°
2026-04-25 10:06 25.29142 55.30217 3573 ft 247 kts 302°
2026-04-25 10:07 25.30099 55.28564 3973 ft 261 kts 305°
2026-04-25 10:07 25.31150 55.26894 4013 ft 265 kts 306°
2026-04-25 10:07 25.32211 55.25251 4489 ft 269 kts 306°
2026-04-25 10:07 25.33296 55.23569 5356 ft 268 kts 305°
2026-04-25 10:08 25.34333 55.21952 6092 ft 273 kts 304°
2026-04-25 10:08 25.35399 55.20202 6788 ft 274 kts 296°
2026-04-25 10:08 25.35851 55.18157 7378 ft 276 kts 269°
2026-04-25 10:08 25.35780 55.16019 8053 ft 280 kts 267°
2026-04-25 10:09 25.35697 55.13884 8797 ft 282 kts 267°
2026-04-25 10:09 25.35611 55.11705 9599 ft 283 kts 266°
2026-04-25 10:09 25.35525 55.09513 10277 ft 288 kts 266°
2026-04-25 10:09 25.35438 55.07233 10556 ft 310 kts 266°
2026-04-25 10:10 25.35345 55.04786 10733 ft 333 kts 266°
2026-04-25 10:10 25.35246 55.02139 10909 ft 356 kts 267°
2026-04-25 10:10 25.35144 54.99329 11279 ft 371 kts 267°
2026-04-25 10:10 25.35039 54.96442 11859 ft 380 kts 266°
2026-04-25 10:11 25.34931 54.93501 12539 ft 385 kts 266°
2026-04-25 10:11 25.34916 54.90548 13167 ft 386 kts 275°
2026-04-25 10:11 25.35581 54.87650 13571 ft 394 kts 288°
2026-04-25 10:11 25.36493 54.84757 14124 ft 400 kts 287°
2026-04-25 10:12 25.37388 54.81834 14881 ft 400 kts 287°
2026-04-25 10:12 25.38241 54.78946 15594 ft 401 kts 286°
2026-04-25 10:12 25.39942 54.73005 16896 ft 408 kts 285°
2026-04-25 10:13 25.40803 54.69990 17558 ft 411 kts 285°
2026-04-25 10:13 25.41677 54.66968 18206 ft 414 kts 285°
2026-04-25 10:13 25.42549 54.63955 18767 ft 417 kts 285°
2026-04-25 10:13 25.43436 54.60889 19360 ft 419 kts 286°
2026-04-25 10:14 25.44338 54.57807 19955 ft 421 kts 286°
2026-04-25 10:14 25.45248 54.54717 20530 ft 423 kts 286°
2026-04-25 10:14 25.46168 54.51598 21086 ft 426 kts 286°
2026-04-25 10:14 25.47079 54.48501 21630 ft 429 kts 286°
2026-04-25 10:15 25.48006 54.45347 22176 ft 432 kts 286°
2026-04-25 10:15 25.48939 54.42166 22702 ft 435 kts 286°
2026-04-25 10:15 25.49876 54.38966 23222 ft 438 kts 286°
2026-04-25 10:15 25.50820 54.35737 23684 ft 441 kts 286°
2026-04-25 10:16 25.51755 54.32539 24099 ft 443 kts 286°
2026-04-25 10:16 25.52709 54.29273 24532 ft 445 kts 286°
2026-04-25 10:16 25.53665 54.25994 24959 ft 447 kts 286°
2026-04-25 10:16 25.54627 54.22704 25383 ft 449 kts 286°
2026-04-25 10:17 25.55593 54.19437 25789 ft 452 kts 286°
2026-04-25 10:17 25.56578 54.16115 26194 ft 454 kts 286°
2026-04-25 10:17 25.57569 54.12770 26603 ft 457 kts 286°
2026-04-25 10:17 25.58560 54.09416 27011 ft 459 kts 286°
2026-04-25 10:18 25.59538 54.06092 27395 ft 461 kts 285°
2026-04-25 10:18 25.60518 54.02687 27770 ft 463 kts 285°
2026-04-25 10:18 25.61485 53.99275 28124 ft 465 kts 285°
2026-04-25 10:18 25.62451 53.95843 28493 ft 467 kts 285°
2026-04-25 10:19 25.63423 53.92395 28862 ft 469 kts 285°
2026-04-25 10:19 25.64399 53.88938 29190 ft 470 kts 285°
2026-04-25 10:19 25.65379 53.85472 29530 ft 471 kts 285°
2026-04-25 10:19 25.66349 53.82042 29866 ft 472 kts 285°
2026-04-25 10:20 25.67334 53.78556 30241 ft 471 kts 285°
2026-04-25 10:20 25.68308 53.75106 30639 ft 469 kts 284°
2026-04-25 10:20 25.69280 53.71657 31028 ft 467 kts 284°
2026-04-25 10:20 25.70248 53.68216 31402 ft 465 kts 284°
2026-04-25 10:21 25.71208 53.64799 31747 ft 464 kts 284°
2026-04-25 10:21 25.72168 53.61376 32094 ft 463 kts 284°
2026-04-25 10:21 25.73112 53.58009 32425 ft 462 kts 284°
2026-04-25 10:21 25.74065 53.54606 32780 ft 460 kts 284°
2026-04-25 10:22 25.75014 53.51213 33111 ft 459 kts 284°
2026-04-25 10:22 25.75641 53.48980 33340 ft 458 kts 284°
2026-04-25 10:22 25.76914 53.44472 33778 ft 456 kts 284°
2026-04-25 10:23 25.78817 53.37742 33917 ft 460 kts 284°
2026-04-25 10:23 25.80721 53.30991 33918 ft 455 kts 284°
2026-04-25 10:24 25.82602 53.24303 33931 ft 451 kts 284°
2026-04-25 10:24 25.84551 53.17679 33938 ft 452 kts 288°
2026-04-25 10:25 25.87129 53.11287 33927 ft 454 kts 291°
2026-04-25 10:25 25.89746 53.04938 33931 ft 455 kts 290°
2026-04-25 10:26 25.92363 52.98512 33930 ft 456 kts 290°
2026-04-25 10:26 25.94955 52.92108 33932 ft 456 kts 290°
2026-04-25 10:27 25.97120 52.86751 33933 ft 457 kts 290°
2026-04-25 10:27 25.99728 52.80291 33933 ft 457 kts 290°
2026-04-25 10:28 26.02774 52.72803 33931 ft 457 kts 292°
2026-04-25 10:28 26.05153 52.67544 33932 ft 458 kts 293°
2026-04-25 10:29 26.08057 52.61236 33931 ft 457 kts 293°
2026-04-25 10:29 26.10891 52.54945 33933 ft 456 kts 292°
2026-04-25 10:30 26.13743 52.48622 33935 ft 456 kts 292°
2026-04-25 10:30 26.16611 52.42302 33935 ft 456 kts 292°
2026-04-25 10:31 26.19456 52.36016 33937 ft 457 kts 292°
2026-04-25 10:31 26.22319 52.29669 33937 ft 457 kts 292°
2026-04-25 10:32 26.25071 52.23342 33944 ft 457 kts 291°
2026-04-25 10:32 26.27826 52.16934 33929 ft 457 kts 291°
2026-04-25 10:33 26.30592 52.10530 33933 ft 457 kts 291°
2026-04-25 10:33 26.33343 52.04144 33951 ft 457 kts 291°
2026-04-25 10:34 26.36060 51.97778 33940 ft 456 kts 291°
2026-04-25 10:34 26.38580 51.91293 33945 ft 452 kts 286°
2026-04-25 10:35 26.40726 51.84729 33938 ft 452 kts 286°
2026-04-25 10:35 26.42941 51.78143 33947 ft 451 kts 287°
2026-04-25 10:36 26.45145 51.71638 33945 ft 451 kts 287°
2026-04-25 10:36 26.47362 51.65082 33948 ft 451 kts 287°
2026-04-25 10:37 26.49572 51.58515 33947 ft 450 kts 286°
2026-04-25 10:37 26.51742 51.51961 33943 ft 450 kts 286°
2026-04-25 10:38 26.53896 51.45449 33950 ft 449 kts 286°
2026-04-25 10:38 26.56063 51.38900 33946 ft 449 kts 286°
2026-04-25 10:39 26.58226 51.32355 33962 ft 449 kts 285°
2026-04-25 10:39 26.60391 51.25797 33956 ft 450 kts 285°
2026-04-25 10:40 26.62555 51.19253 33956 ft 451 kts 285°
2026-04-25 10:40 26.64730 51.12661 33956 ft 451 kts 285°
2026-04-25 10:41 26.66903 51.06061 33954 ft 452 kts 285°
2026-04-25 10:41 26.69056 50.99502 33956 ft 451 kts 285°
2026-04-25 10:42 26.71181 50.92895 33957 ft 451 kts 285°
2026-04-25 10:42 26.73300 50.86270 33962 ft 450 kts 285°
2026-04-25 10:43 26.75402 50.79699 33964 ft 449 kts 284°
2026-04-25 10:43 26.77490 50.73171 33961 ft 448 kts 284°
2026-04-25 10:44 26.79925 50.66732 33966 ft 453 kts 292°
2026-04-25 10:44 26.83285 50.60711 33966 ft 459 kts 301°
2026-04-25 10:45 26.87323 50.55198 33963 ft 460 kts 303°
2026-04-25 10:45 26.91396 50.49677 33969 ft 459 kts 303°
2026-04-25 10:46 26.95707 50.44379 33967 ft 461 kts 307°
2026-04-25 10:46 27.00137 50.39175 33965 ft 460 kts 307°
2026-04-25 10:47 27.04533 50.33947 33969 ft 458 kts 306°
2026-04-25 10:47 27.08851 50.28753 33967 ft 457 kts 306°
2026-04-25 10:48 27.13194 50.23510 33969 ft 456 kts 306°
2026-04-25 10:48 27.17768 50.18547 33965 ft 463 kts 314°
2026-04-25 10:49 27.22975 50.14249 33974 ft 466 kts 317°
2026-04-25 10:49 27.28229 50.09953 33975 ft 466 kts 316°
2026-04-25 10:50 27.33423 50.05646 33975 ft 466 kts 316°
2026-04-25 10:50 27.38626 50.01266 33980 ft 465 kts 315°
2026-04-25 10:51 27.43727 49.96774 33981 ft 465 kts 314°
2026-04-25 10:51 27.48795 49.92285 33984 ft 466 kts 315°
2026-04-25 10:52 27.53879 49.87801 33992 ft 466 kts 315°
2026-04-25 10:52 27.59003 49.83290 33993 ft 466 kts 315°
2026-04-25 10:53 27.64133 49.78769 33984 ft 466 kts 315°
2026-04-25 10:53 27.69245 49.74256 33982 ft 466 kts 315°
2026-04-25 10:54 27.74316 49.69773 33985 ft 466 kts 315°
2026-04-25 10:54 27.79428 49.65247 33996 ft 466 kts 314°
2026-04-25 10:55 27.84525 49.60695 33994 ft 466 kts 314°
2026-04-25 10:55 27.89537 49.56205 33989 ft 465 kts 314°
2026-04-25 10:56 27.94587 49.51681 33999 ft 464 kts 314°
2026-04-25 10:56 27.99669 49.47123 33995 ft 464 kts 314°
2026-04-25 10:57 28.04711 49.42588 33993 ft 463 kts 314°
2026-04-25 10:57 28.09721 49.38025 33997 ft 462 kts 313°
2026-04-25 10:58 28.14731 49.33448 33995 ft 462 kts 313°
2026-04-25 10:58 28.19746 49.28868 33993 ft 462 kts 313°
2026-04-25 10:59 28.24721 49.24321 33990 ft 462 kts 313°
2026-04-25 10:59 28.29726 49.19729 33996 ft 461 kts 313°
2026-04-25 11:00 28.34680 49.15150 34000 ft 461 kts 313°
2026-04-25 11:00 28.39690 49.10548 33999 ft 463 kts 315°
2026-04-25 11:01 28.45004 49.06399 34001 ft 467 kts 318°
2026-04-25 11:01 28.50420 49.02311 33998 ft 466 kts 318°
2026-04-25 11:02 28.55810 48.98207 33992 ft 465 kts 318°
2026-04-25 11:02 28.61180 48.94090 33990 ft 465 kts 318°
2026-04-25 11:03 28.66511 48.89993 33992 ft 465 kts 318°
2026-04-25 11:03 28.71889 48.85857 33998 ft 465 kts 318°
2026-04-25 11:04 28.77223 48.81750 33994 ft 465 kts 318°
2026-04-25 11:04 28.82591 48.77618 33996 ft 465 kts 318°
2026-04-25 11:05 28.87970 48.73493 33931 ft 467 kts 318°
2026-04-25 11:05 28.93388 48.69328 33996 ft 477 kts 318°
2026-04-25 11:06 28.98943 48.65051 34002 ft 485 kts 318°
2026-04-25 11:06 29.04563 48.60728 33985 ft 486 kts 318°
2026-04-25 11:07 29.10167 48.56412 33988 ft 486 kts 318°
2026-04-25 11:07 29.15770 48.52086 33990 ft 485 kts 318°
2026-04-25 11:08 29.21334 48.47782 33992 ft 484 kts 318°
2026-04-25 11:08 29.26916 48.43459 33994 ft 484 kts 317°
2026-04-25 11:09 29.32490 48.39136 33993 ft 484 kts 317°
2026-04-25 11:09 29.38078 48.34796 33991 ft 484 kts 317°
2026-04-25 11:10 29.43634 48.30493 33991 ft 486 kts 319°
2026-04-25 11:10 29.49450 48.26566 33984 ft 490 kts 322°
2026-04-25 11:11 29.55397 48.22719 33986 ft 490 kts 322°
2026-04-25 11:11 29.61341 48.18845 33983 ft 489 kts 322°
2026-04-25 11:12 29.67214 48.14979 33980 ft 488 kts 322°
2026-04-25 11:12 29.73107 48.11086 33978 ft 487 kts 322°
2026-04-25 11:13 29.79000 48.07190 33973 ft 486 kts 322°
2026-04-25 11:13 29.84823 48.03336 33976 ft 485 kts 322°
2026-04-25 11:14 29.90671 47.99459 33967 ft 484 kts 321°
2026-04-25 11:14 29.96477 47.95606 33972 ft 482 kts 321°
2026-04-25 11:15 30.01979 47.91310 33975 ft 469 kts 311°
2026-04-25 11:15 30.06552 47.86154 33969 ft 457 kts 303°
2026-04-25 11:16 30.12770 47.77771 33969 ft 457 kts 303°
2026-04-25 11:16 30.16891 47.72225 33965 ft 457 kts 303°
2026-04-25 11:17 30.20361 47.67579 33960 ft 457 kts 303°
2026-04-25 11:17 30.25202 47.61100 33967 ft 457 kts 303°
2026-04-25 11:18 30.28660 47.56465 33966 ft 457 kts 303°
2026-04-25 11:18 30.32833 47.50866 33970 ft 456 kts 303°
2026-04-25 11:19 30.36945 47.45337 33960 ft 456 kts 303°
2026-04-25 11:19 30.41085 47.39764 33958 ft 455 kts 303°
2026-04-25 11:20 30.45215 47.34195 33953 ft 454 kts 303°
2026-04-25 11:20 30.49302 47.28676 33959 ft 453 kts 303°
2026-04-25 11:21 30.53402 47.23134 33964 ft 453 kts 303°
2026-04-25 11:21 30.57710 47.17749 33960 ft 459 kts 309°
2026-04-25 11:22 30.62693 47.13027 33960 ft 463 kts 313°
2026-04-25 11:22 30.67727 47.08391 33962 ft 463 kts 313°
2026-04-25 11:23 30.72779 47.03701 33937 ft 463 kts 313°
2026-04-25 11:23 30.77781 46.99026 33941 ft 464 kts 313°
2026-04-25 11:24 30.82814 46.94306 33957 ft 464 kts 313°
2026-04-25 11:24 30.87817 46.89608 33951 ft 464 kts 313°
2026-04-25 11:25 30.92833 46.84892 33955 ft 465 kts 313°
2026-04-25 11:25 30.97870 46.80151 33946 ft 465 kts 313°
2026-04-25 11:26 31.02908 46.75402 33946 ft 465 kts 313°
2026-04-25 11:26 31.07932 46.70660 33945 ft 465 kts 313°
2026-04-25 11:27 31.12973 46.65895 33939 ft 465 kts 313°
2026-04-25 11:27 31.17161 46.61932 33947 ft 465 kts 313°
2026-04-25 11:28 31.23020 46.56378 33940 ft 465 kts 313°
2026-04-25 11:28 31.28026 46.51627 33939 ft 465 kts 313°
2026-04-25 11:29 31.33049 46.46852 33938 ft 465 kts 313°
2026-04-25 11:29 31.38050 46.42091 33937 ft 465 kts 313°
2026-04-25 11:30 31.43067 46.37308 33931 ft 465 kts 313°
2026-04-25 11:30 31.48075 46.32527 33936 ft 465 kts 313°
2026-04-25 11:31 31.53089 46.27733 33939 ft 464 kts 314°
2026-04-25 11:31 31.58088 46.22947 33940 ft 464 kts 314°
2026-04-25 11:32 31.63092 46.18149 33933 ft 464 kts 314°
2026-04-25 11:32 31.68094 46.13345 33934 ft 464 kts 314°
2026-04-25 11:33 31.73064 46.08566 33938 ft 464 kts 314°
2026-04-25 11:33 31.78059 46.03715 33936 ft 464 kts 313°
2026-04-25 11:34 31.82992 45.98808 33937 ft 464 kts 313°
2026-04-25 11:34 31.87909 45.93901 33946 ft 465 kts 313°
2026-04-25 11:35 31.92826 45.89000 33941 ft 465 kts 313°
2026-04-25 11:35 31.97786 45.84056 33938 ft 466 kts 313°
2026-04-25 11:36 32.02741 45.79112 33939 ft 466 kts 313°
2026-04-25 11:36 32.07656 45.74200 33949 ft 466 kts 313°
2026-04-25 11:37 32.12607 45.69245 33935 ft 465 kts 313°
2026-04-25 11:37 32.17541 45.64298 33940 ft 465 kts 313°
2026-04-25 11:38 32.22469 45.59350 33942 ft 465 kts 313°
2026-04-25 11:38 32.27365 45.54428 33937 ft 464 kts 313°
2026-04-25 11:39 32.32285 45.49474 33937 ft 464 kts 313°
2026-04-25 11:39 32.37178 45.44540 33941 ft 463 kts 313°
2026-04-25 11:40 32.42096 45.39572 33943 ft 463 kts 313°
2026-04-25 11:40 32.46961 45.34651 33944 ft 462 kts 313°
2026-04-25 11:41 32.51860 45.29688 33939 ft 462 kts 314°
2026-04-25 11:41 32.56855 45.24920 33940 ft 467 kts 320°
2026-04-25 11:42 32.62280 45.20646 33950 ft 468 kts 321°
2026-04-25 11:42 32.67729 45.16389 33941 ft 468 kts 320°
2026-04-25 11:43 32.73135 45.12123 33950 ft 468 kts 320°
2026-04-25 11:43 32.78560 45.07814 33951 ft 469 kts 320°
2026-04-25 11:44 32.84000 45.03483 33957 ft 470 kts 320°
2026-04-25 11:44 32.89413 44.99168 33960 ft 470 kts 321°
2026-04-25 11:45 32.94854 44.94826 33956 ft 470 kts 321°
2026-04-25 11:45 33.00287 44.90483 33950 ft 470 kts 321°
2026-04-25 11:46 33.05676 44.86169 33956 ft 469 kts 321°
2026-04-25 11:46 33.11100 44.81820 33975 ft 469 kts 321°
2026-04-25 11:47 33.16518 44.77470 33955 ft 468 kts 321°
2026-04-25 11:47 33.22215 44.73715 33979 ft 475 kts 332°
2026-04-25 11:48 33.28520 44.71161 33966 ft 481 kts 341°
2026-04-25 11:48 33.35042 44.69270 33963 ft 482 kts 341°
2026-04-25 11:49 33.41578 44.67416 33962 ft 482 kts 341°
2026-04-25 11:49 33.48059 44.65536 33948 ft 481 kts 341°
2026-04-25 11:50 33.54568 44.63616 33946 ft 481 kts 341°
2026-04-25 11:50 33.61066 44.61689 33954 ft 480 kts 341°
2026-04-25 11:51 33.67504 44.59777 33948 ft 480 kts 341°
2026-04-25 11:51 33.73995 44.57849 33948 ft 479 kts 341°
2026-04-25 11:52 33.80471 44.55922 33952 ft 479 kts 341°
2026-04-25 11:52 33.86955 44.53989 33956 ft 479 kts 341°
2026-04-25 11:53 33.93421 44.52060 33955 ft 479 kts 341°
2026-04-25 11:53 33.99875 44.50131 33959 ft 480 kts 341°
2026-04-25 11:54 34.06364 44.48189 33952 ft 480 kts 341°
2026-04-25 11:55 34.14981 44.45604 33960 ft 481 kts 341°
2026-04-25 11:55 34.22549 44.43329 33959 ft 481 kts 341°
2026-04-25 11:56 34.29076 44.41365 33961 ft 482 kts 341°
2026-04-25 11:56 34.35566 44.39408 33958 ft 482 kts 341°
2026-04-25 11:57 34.42037 44.37454 33962 ft 481 kts 341°
2026-04-25 11:57 34.48567 44.35478 33960 ft 481 kts 341°
2026-04-25 11:58 34.55028 44.33521 33966 ft 480 kts 341°
2026-04-25 11:58 34.61514 44.31554 33964 ft 479 kts 341°
2026-04-25 11:59 34.67955 44.29596 33966 ft 479 kts 341°
2026-04-25 11:59 34.74432 44.27624 33966 ft 478 kts 341°
2026-04-25 12:00 34.84083 44.24680 33969 ft 477 kts 341°
2026-04-25 12:01 34.93741 44.21726 33969 ft 477 kts 341°
2026-04-25 12:01 35.00147 44.19763 33976 ft 477 kts 341°
2026-04-25 12:02 35.09839 44.16787 33967 ft 478 kts 341°
2026-04-25 12:02 35.16272 44.14808 33975 ft 479 kts 341°
2026-04-25 12:03 35.22759 44.12808 33976 ft 481 kts 341°
2026-04-25 12:03 35.29223 44.10813 33974 ft 482 kts 341°
2026-04-25 12:04 35.35751 44.08794 33977 ft 484 kts 341°
2026-04-25 12:04 35.42306 44.06765 33979 ft 485 kts 341°
2026-04-25 12:05 35.48832 44.04740 33980 ft 487 kts 341°
2026-04-25 12:05 35.55442 44.02686 33978 ft 488 kts 341°
2026-04-25 12:06 35.62000 44.00645 33987 ft 489 kts 341°
2026-04-25 12:06 35.68626 43.98579 33991 ft 490 kts 341°
2026-04-25 12:07 35.75229 43.96517 33993 ft 492 kts 341°
2026-04-25 12:07 35.81877 43.94437 33996 ft 493 kts 341°
2026-04-25 12:08 35.88513 43.92357 34000 ft 493 kts 341°
2026-04-25 12:08 35.95180 43.90265 34002 ft 493 kts 341°
2026-04-25 12:09 36.01785 43.88187 34002 ft 493 kts 341°
2026-04-25 12:09 36.08427 43.86095 34004 ft 491 kts 341°
2026-04-25 12:10 36.15047 43.84005 33998 ft 490 kts 341°
2026-04-25 12:10 36.21618 43.81927 33996 ft 489 kts 341°
2026-04-25 12:11 36.28208 43.79739 34003 ft 486 kts 338°
2026-04-25 12:11 36.34455 43.76629 34016 ft 484 kts 333°
2026-04-25 12:12 36.39610 43.73884 34031 ft 484 kts 333°
2026-04-25 12:12 36.46846 43.70076 34048 ft 486 kts 333°
2026-04-25 12:13 36.53063 43.66841 34062 ft 487 kts 333°
2026-04-25 12:13 36.59338 43.63577 34070 ft 488 kts 333°
2026-04-25 12:14 36.65576 43.60322 34082 ft 489 kts 333°
2026-04-25 12:14 36.71857 43.57038 34093 ft 489 kts 332°
2026-04-25 12:15 36.78112 43.53709 34094 ft 488 kts 331°
2026-04-25 12:15 36.83272 43.50822 34095 ft 487 kts 330°
2026-04-25 12:16 36.89459 43.47331 34096 ft 487 kts 330°
2026-04-25 12:16 36.95602 43.43882 34108 ft 486 kts 330°
2026-04-25 12:17 37.01771 43.40426 34108 ft 486 kts 330°
2026-04-25 12:17 37.07946 43.36961 34116 ft 485 kts 330°
2026-04-25 12:18 37.14070 43.33519 34108 ft 485 kts 330°
2026-04-25 12:18 37.20244 43.30040 34119 ft 484 kts 330°
2026-04-25 12:19 37.29428 43.24854 34127 ft 484 kts 329°
2026-04-25 12:20 37.34888 43.20254 34121 ft 464 kts 308°
2026-04-25 12:20 37.38522 43.13814 34120 ft 449 kts 292°
2026-04-25 12:21 37.41399 43.06830 34125 ft 450 kts 292°
2026-04-25 12:21 37.44306 42.99856 34125 ft 452 kts 292°
2026-04-25 12:22 37.47257 42.92870 34124 ft 450 kts 292°
2026-04-25 12:22 37.50191 42.85940 34110 ft 450 kts 292°
2026-04-25 12:23 37.53139 42.78961 34103 ft 451 kts 292°
2026-04-25 12:23 37.56082 42.71971 34100 ft 450 kts 292°
2026-04-25 12:24 37.58996 42.65041 34093 ft 449 kts 292°
2026-04-25 12:24 37.61920 42.58111 34101 ft 449 kts 292°
2026-04-25 12:25 37.64853 42.51163 34102 ft 448 kts 292°
2026-04-25 12:25 37.67781 42.44205 34088 ft 448 kts 292°
2026-04-25 12:26 37.70695 42.37259 34082 ft 448 kts 292°
2026-04-25 12:26 37.73600 42.30320 34072 ft 448 kts 292°
2026-04-25 12:27 37.76500 42.23383 34079 ft 448 kts 292°
2026-04-25 12:27 37.79394 42.16437 34064 ft 451 kts 292°
2026-04-25 12:28 37.82331 42.09373 34055 ft 453 kts 292°
2026-04-25 12:28 37.85260 42.02322 34060 ft 451 kts 292°
2026-04-25 12:29 37.88167 41.95304 34047 ft 451 kts 292°
2026-04-25 12:29 37.91281 41.88367 34048 ft 456 kts 298°
2026-04-25 12:30 37.95258 41.82082 34047 ft 462 kts 306°
2026-04-25 12:30 37.99553 41.75997 34042 ft 462 kts 306°
2026-04-25 12:31 38.03805 41.69942 34048 ft 461 kts 305°
2026-04-25 12:31 38.08058 41.63827 34043 ft 461 kts 305°
2026-04-25 12:32 38.12296 41.57705 34053 ft 460 kts 305°
2026-04-25 12:32 38.16498 41.51621 34037 ft 460 kts 305°
2026-04-25 12:33 38.20715 41.45505 34045 ft 459 kts 305°
2026-04-25 12:33 38.24895 41.39432 34052 ft 458 kts 305°
2026-04-25 12:34 38.29093 41.33322 34054 ft 458 kts 305°
2026-04-25 12:34 38.33288 41.27204 34045 ft 457 kts 305°
2026-04-25 12:35 38.37442 41.21134 34057 ft 456 kts 305°
2026-04-25 12:35 38.41615 41.15023 34053 ft 456 kts 305°
2026-04-25 12:36 38.45766 41.08935 34056 ft 456 kts 305°
2026-04-25 12:36 38.49892 41.02746 34061 ft 456 kts 304°
2026-04-25 12:37 38.53934 40.96541 34091 ft 458 kts 304°
2026-04-25 12:37 38.55974 40.93412 34334 ft 458 kts 304°
2026-04-25 12:37 38.58022 40.90279 34742 ft 455 kts 304°
2026-04-25 12:37 38.60043 40.87187 35151 ft 452 kts 304°
2026-04-25 12:38 38.62036 40.84138 35503 ft 450 kts 304°
2026-04-25 12:38 38.64037 40.81073 35807 ft 450 kts 304°
2026-04-25 12:38 38.66064 40.77998 35979 ft 451 kts 304°
2026-04-25 12:39 38.70140 40.71850 36062 ft 452 kts 305°
2026-04-25 12:39 38.74177 40.65757 36073 ft 449 kts 304°
2026-04-25 12:40 38.78207 40.59644 36077 ft 447 kts 304°
2026-04-25 12:40 38.82185 40.53594 36076 ft 446 kts 304°
2026-04-25 12:41 38.86192 40.47486 36082 ft 446 kts 304°
2026-04-25 12:41 38.90174 40.41405 36081 ft 447 kts 304°
2026-04-25 12:42 38.94173 40.35288 36088 ft 448 kts 304°
2026-04-25 12:42 38.98170 40.29162 36091 ft 449 kts 304°
2026-04-25 12:43 39.02193 40.22988 36094 ft 450 kts 304°
2026-04-25 12:43 39.08211 40.13722 36099 ft 452 kts 304°
2026-04-25 12:44 39.12255 40.07483 36105 ft 453 kts 304°
2026-04-25 12:45 39.18304 39.98127 36097 ft 454 kts 304°
2026-04-25 12:45 39.24335 39.88782 36113 ft 452 kts 304°
2026-04-25 12:46 39.28359 39.82531 36111 ft 452 kts 304°
2026-04-25 12:46 39.32384 39.76261 36118 ft 453 kts 304°
2026-04-25 12:47 39.36389 39.70014 36104 ft 453 kts 304°
2026-04-25 12:47 39.40408 39.63738 36108 ft 452 kts 304°
2026-04-25 12:48 39.44379 39.57515 36142 ft 451 kts 304°
2026-04-25 12:48 39.48382 39.51234 36127 ft 451 kts 304°
2026-04-25 12:49 39.52378 39.44939 36126 ft 451 kts 304°
2026-04-25 12:49 39.56302 39.38627 36131 ft 452 kts 304°
2026-04-25 12:50 39.60253 39.32234 36132 ft 454 kts 304°
2026-04-25 12:50 39.64191 39.25867 36129 ft 454 kts 304°
2026-04-25 12:51 39.68152 39.19455 36132 ft 455 kts 304°
2026-04-25 12:51 39.72090 39.13069 36117 ft 456 kts 304°
2026-04-25 12:52 39.76095 39.06642 36113 ft 457 kts 305°
2026-04-25 12:52 39.80123 39.00241 36107 ft 456 kts 305°
2026-04-25 12:53 39.84120 38.93870 36110 ft 456 kts 305°
2026-04-25 12:53 39.88106 38.87492 36104 ft 456 kts 304°
2026-04-25 12:54 39.92101 38.81081 36111 ft 455 kts 304°
2026-04-25 12:54 39.96097 38.74653 36102 ft 456 kts 305°
2026-04-25 12:55 39.99412 38.69311 36093 ft 456 kts 305°
2026-04-25 12:55 40.04061 38.61808 36106 ft 456 kts 305°
2026-04-25 12:56 40.08028 38.55389 36106 ft 456 kts 304°
2026-04-25 12:56 40.12017 38.48920 36105 ft 457 kts 305°
2026-04-25 12:57 40.15995 38.42457 36103 ft 458 kts 305°
2026-04-25 12:57 40.19966 38.35991 36101 ft 458 kts 305°
2026-04-25 12:58 40.23964 38.29468 36102 ft 458 kts 305°
2026-04-25 12:58 40.27935 38.22975 36093 ft 459 kts 305°
2026-04-25 12:59 40.31789 38.16298 36102 ft 456 kts 298°
2026-04-25 12:59 40.34691 38.08997 36079 ft 452 kts 289°
2026-04-25 13:00 40.36225 38.03861 36075 ft 452 kts 288°
2026-04-25 13:00 40.39242 37.93616 36068 ft 454 kts 288°
2026-04-25 13:01 40.41548 37.85885 36074 ft 455 kts 289°
2026-04-25 13:01 40.43851 37.78180 36068 ft 456 kts 289°
2026-04-25 13:02 40.46172 37.70391 36068 ft 457 kts 289°
2026-04-25 13:02 40.48473 37.62644 36059 ft 457 kts 289°
2026-04-25 13:03 40.50778 37.54867 36074 ft 458 kts 289°
2026-04-25 13:03 40.53087 37.47055 36068 ft 459 kts 289°
2026-04-25 13:04 40.55392 37.39229 36068 ft 459 kts 289°
2026-04-25 13:04 40.57684 37.31422 36072 ft 459 kts 289°
2026-04-25 13:05 40.59983 37.23572 36067 ft 459 kts 289°
2026-04-25 13:05 40.62263 37.15762 36073 ft 459 kts 289°
2026-04-25 13:06 40.64551 37.07900 36069 ft 460 kts 289°
2026-04-25 13:06 40.66839 37.00015 36063 ft 461 kts 289°
2026-04-25 13:07 40.69121 36.92128 36067 ft 461 kts 289°
2026-04-25 13:07 40.71391 36.84256 36074 ft 461 kts 289°
2026-04-25 13:08 40.73669 36.76334 36069 ft 462 kts 289°
2026-04-25 13:08 40.75943 36.68406 36069 ft 463 kts 289°
2026-04-25 13:09 40.78226 36.60435 36070 ft 464 kts 289°
2026-04-25 13:09 40.80502 36.52499 36070 ft 464 kts 289°
2026-04-25 13:10 40.82784 36.44514 36071 ft 465 kts 289°
2026-04-25 13:10 40.85050 36.36553 36062 ft 464 kts 289°
2026-04-25 13:11 40.87326 36.28542 36068 ft 464 kts 289°
2026-04-25 13:11 40.89575 36.20591 36066 ft 464 kts 289°
2026-04-25 13:12 40.91819 36.12634 36068 ft 464 kts 289°
2026-04-25 13:12 40.93330 36.07267 36072 ft 464 kts 289°
2026-04-25 13:13 40.96267 35.96617 36068 ft 465 kts 288°
2026-04-25 13:13 40.98462 35.88570 36054 ft 465 kts 288°
2026-04-25 13:14 41.00678 35.80521 36058 ft 465 kts 289°
2026-04-25 13:14 41.02907 35.72508 36049 ft 465 kts 289°
2026-04-25 13:15 41.05137 35.64463 36053 ft 464 kts 289°
2026-04-25 13:15 41.07345 35.56454 36043 ft 464 kts 289°
2026-04-25 13:16 41.09555 35.48405 36053 ft 464 kts 289°
2026-04-25 13:16 41.11749 35.40390 36048 ft 464 kts 289°
2026-04-25 13:17 41.13951 35.32321 36048 ft 464 kts 289°
2026-04-25 13:17 41.15777 35.25613 36052 ft 464 kts 289°
2026-04-25 13:18 41.18324 35.16221 36044 ft 464 kts 289°
2026-04-25 13:18 41.20141 35.09497 36051 ft 464 kts 289°
2026-04-25 13:19 41.22317 35.01422 36047 ft 464 kts 289°
2026-04-25 13:19 41.24121 34.94711 36038 ft 464 kts 289°
2026-04-25 13:20 41.26642 34.85300 36030 ft 464 kts 289°
2026-04-25 13:20 41.28804 34.77207 36031 ft 464 kts 289°
2026-04-25 13:21 41.30944 34.69168 36047 ft 463 kts 288°
2026-04-25 13:21 41.33086 34.61089 36044 ft 463 kts 288°
2026-04-25 13:22 41.35227 34.52996 36037 ft 462 kts 288°
2026-04-25 13:23 41.38411 34.40909 36027 ft 462 kts 288°
2026-04-25 13:23 41.40524 34.32851 36024 ft 462 kts 288°
2026-04-25 13:24 41.42617 34.24740 36026 ft 462 kts 288°
2026-04-25 13:24 41.44698 34.16630 36031 ft 461 kts 288°
2026-04-25 13:25 41.46765 34.08590 36027 ft 461 kts 288°
2026-04-25 13:25 41.48852 34.00487 36034 ft 461 kts 288°
2026-04-25 13:26 41.50917 33.92448 36036 ft 460 kts 288°
2026-04-25 13:26 41.52988 33.84346 36041 ft 460 kts 288°
2026-04-25 13:27 41.55036 33.76313 36030 ft 460 kts 288°
2026-04-25 13:27 41.57096 33.68197 36034 ft 460 kts 288°
2026-04-25 13:28 41.59136 33.60139 36026 ft 460 kts 288°
2026-04-25 13:28 41.61152 33.52020 36025 ft 459 kts 287°
2026-04-25 13:29 41.63174 33.43952 36027 ft 460 kts 288°
2026-04-25 13:29 41.65225 33.35845 36043 ft 460 kts 288°
2026-04-25 13:30 41.68276 33.23693 36035 ft 461 kts 288°
2026-04-25 13:31 41.71319 33.11483 36036 ft 461 kts 288°
2026-04-25 13:31 41.73340 33.03351 36041 ft 461 kts 288°
2026-04-25 13:32 41.75338 32.95176 36028 ft 462 kts 287°
2026-04-25 13:32 41.77308 32.87041 36038 ft 462 kts 287°
2026-04-25 13:33 41.79295 32.78829 36038 ft 462 kts 287°
2026-04-25 13:33 41.81289 32.70624 36036 ft 462 kts 288°
2026-04-25 13:34 41.83294 32.62488 36041 ft 462 kts 288°
2026-04-25 13:34 41.85292 32.54343 36039 ft 462 kts 287°
2026-04-25 13:35 41.87291 32.46147 36043 ft 462 kts 287°
2026-04-25 13:35 41.89225 32.37924 36045 ft 462 kts 287°
2026-04-25 13:36 41.91159 32.29732 36047 ft 462 kts 287°
2026-04-25 13:36 41.93128 32.21508 36046 ft 462 kts 287°
2026-04-25 13:37 41.95091 32.13246 36047 ft 463 kts 287°
2026-04-25 13:37 41.97032 32.05038 36043 ft 463 kts 287°
2026-04-25 13:38 41.98981 31.96774 36040 ft 464 kts 287°
2026-04-25 13:38 42.00917 31.88536 36040 ft 464 kts 287°
2026-04-25 13:39 42.02858 31.80238 36044 ft 464 kts 287°
2026-04-25 13:39 42.04784 31.71973 36041 ft 465 kts 287°
2026-04-25 13:40 42.06718 31.63643 36038 ft 465 kts 287°
2026-04-25 13:40 42.08645 31.55316 36038 ft 465 kts 287°
2026-04-25 13:41 42.10554 31.47036 36040 ft 466 kts 287°
2026-04-25 13:41 42.12474 31.38677 36041 ft 466 kts 287°
2026-04-25 13:42 42.14392 31.30324 36042 ft 467 kts 287°
2026-04-25 13:42 42.16300 31.21991 36041 ft 467 kts 287°
2026-04-25 13:43 42.18212 31.13607 36039 ft 468 kts 287°
2026-04-25 13:43 42.20112 31.05244 36040 ft 468 kts 287°
2026-04-25 13:44 42.22014 30.96839 36041 ft 468 kts 287°
2026-04-25 13:44 42.23901 30.88466 36040 ft 468 kts 287°
2026-04-25 13:45 42.25793 30.80042 36038 ft 468 kts 287°
2026-04-25 13:45 42.27683 30.71593 36038 ft 468 kts 287°
2026-04-25 13:46 42.29551 30.63209 36035 ft 468 kts 287°
2026-04-25 13:46 42.31425 30.54765 36037 ft 468 kts 287°
2026-04-25 13:47 42.33284 30.46356 36036 ft 468 kts 287°
2026-04-25 13:47 42.35136 30.37946 36034 ft 468 kts 287°
2026-04-25 13:48 42.36987 30.29506 36034 ft 468 kts 287°
2026-04-25 13:48 42.38822 30.21106 36035 ft 468 kts 287°
2026-04-25 13:49 42.40663 30.12650 36037 ft 467 kts 287°
2026-04-25 13:49 42.42485 30.04243 36055 ft 467 kts 287°
2026-04-25 13:50 42.44315 29.95774 36028 ft 467 kts 287°
2026-04-25 13:50 42.46579 29.87626 36027 ft 465 kts 298°
2026-04-25 13:51 42.50016 29.80230 36024 ft 463 kts 308°
2026-04-25 13:51 42.54040 29.73364 36025 ft 463 kts 309°
2026-04-25 13:52 42.58054 29.66578 36026 ft 464 kts 309°
2026-04-25 13:52 42.62072 29.59702 36021 ft 464 kts 309°
2026-04-25 13:53 42.66037 29.52855 36039 ft 464 kts 309°
2026-04-25 13:53 42.70012 29.45964 36041 ft 464 kts 309°
2026-04-25 13:54 42.73987 29.39056 36018 ft 463 kts 309°
2026-04-25 13:54 42.77956 29.32144 36014 ft 463 kts 309°
2026-04-25 13:55 42.81928 29.25212 36013 ft 463 kts 309°
2026-04-25 13:55 42.85867 29.18321 36031 ft 462 kts 309°
2026-04-25 13:56 42.89793 29.11439 36029 ft 462 kts 309°
2026-04-25 13:56 42.93712 29.04551 36024 ft 461 kts 309°
2026-04-25 13:57 42.97650 28.97615 36022 ft 461 kts 309°
2026-04-25 13:57 43.01552 28.90725 36008 ft 461 kts 309°
2026-04-25 13:58 43.05485 28.83766 36018 ft 460 kts 309°
2026-04-25 13:58 43.09377 28.76862 36021 ft 460 kts 309°
2026-04-25 13:59 43.13289 28.69905 36022 ft 460 kts 309°
2026-04-25 13:59 43.17171 28.62987 36001 ft 460 kts 309°
2026-04-25 14:00 43.21075 28.56012 36015 ft 460 kts 309°
2026-04-25 14:00 43.24968 28.49040 36019 ft 460 kts 309°
2026-04-25 14:01 43.28827 28.42115 36011 ft 459 kts 309°
2026-04-25 14:01 43.32706 28.35136 36010 ft 459 kts 308°
2026-04-25 14:02 43.36561 28.28184 36001 ft 459 kts 308°
2026-04-25 14:02 43.40438 28.21176 35992 ft 459 kts 308°
2026-04-25 14:03 43.44290 28.14195 35976 ft 459 kts 308°
2026-04-25 14:03 43.48144 28.07195 35988 ft 459 kts 308°
2026-04-25 14:04 43.51978 28.00213 35986 ft 459 kts 308°
2026-04-25 14:04 43.55831 27.93180 35972 ft 459 kts 308°
2026-04-25 14:05 43.59662 27.86174 35970 ft 458 kts 308°
2026-04-25 14:05 43.63562 27.79206 35961 ft 457 kts 310°
2026-04-25 14:06 43.67574 27.72451 35965 ft 457 kts 310°